Home   Weather   Bielsko-Biała   Past weeks

Flag for Poland Past Weather in Bielsko-Biała, Poland — Yesterday and Last 2 Weeks

Now
35 °F

Overcast.


Feels Like: 31 °F
Forecast: 32 / 42 °F
Wind: 5 mph from West

Location: Katowice

Current Time: Feb 25, 2017 at 12:42:02 pm

Latest Report: Feb 25, 2017 at 11:00 am


Visibility: 19 mi

Pressure: 30.19 "Hg

Humidity: 66%

Dew Point: 25 °F

Location of Bielsko-BiałaLocation

Past Weather in Bielsko-Biała — Graph

°F

Bielsko-Biała Temperature Yesterday

Maximum temperature yesterday: 52 °F (at 4:00 am)
Minimum temperature yesterday: 32 °F (at 11:00 pm)
Average temperature yesterday: 43 °F

High & Low Weather Summary for the Past Weeks

 TemperatureHumidityPressure
High53 °F (Feb 23, 8:00 pm)100% (Feb 18, 9:00 am)30.73 "Hg (Feb 18, 9:00 am)
Low15 °F (Feb 12, 7:00 am)27% (Feb 15, 2:00 pm)29.32 "Hg (Feb 23, 10:00 pm)
Average34 °F79%30.21 "Hg
* Reported Feb 10 11:00 am — Feb 25 11:00 am, Bielsko-Biała, Weather by CustomWeather, © 2017

Note: Actual official high and low records may vary slightly from our data, if they occured in-between our weather recording intervals... More about our weather records

Advertising

Bielsko-Biała Weather History for the Previous 24 Hours

Scroll right to see more
 ConditionsComfort  
Time TempWeatherWind HumidityBarometerVisibility
11:00 am
Sat, Feb 25
35 °FOvercast.5 mph66%30.19 "Hg19 mi
10:00 am34 °FOvercast.5 mph76%30.17 "Hg12 mi
9:00 am33 °FPartly sunny.5 mph83%30.15 "Hg9 mi
8:00 am31 °FOvercast.6 mph87%30.14 "Hg9 mi
7:00 am31 °FSnow flurries. Overcast.3 mph81%30.11 "Hg6 mi
6:00 am30 °FOvercast.5 mph84%30.09 "Hg9 mi
5:00 am30 °FSnow flurries. Low clouds.3 mph85%30.09 "Hg6 mi
4:00 am29 °FPassing clouds.3 mph92%30.07 "Hg6 mi
3:00 am27 °FPassing clouds.3 mph94%30.06 "Hg6 mi
2:00 am28 °FPassing clouds.3 mph91%30.06 "Hg6 mi
1:00 am29 °FPassing clouds.5 mph86%30.05 "Hg9 mi
12:00 am29 °FPassing clouds.2 mph79%30.03 "Hg9 mi
11:00 pm
Fri, Feb 24
32 °FPassing clouds.2 mph72%30.00 "Hg12 mi
10:00 pm32 °FOvercast.1 mph69%29.98 "Hg19 mi
9:00 pm33 °FPassing clouds.2 mph67%29.95 "Hg19 mi
8:00 pm34 °FPassing clouds.2 mph72%29.90 "Hg12 mi
7:00 pm35 °FPassing clouds.2 mph69%29.87 "Hg12 mi
6:00 pm35 °FPassing clouds.2 mph65%29.81 "Hg19 mi
5:00 pm38 °FScattered clouds.6 mph66%29.77 "Hg31 mi
4:00 pm39 °FPartly sunny.7 mph65%29.73 "Hg31 mi
3:00 pm42 °FSprinkles. Overcast.7 mph49%29.67 "Hg31 mi
2:00 pm44 °FOvercast.10 mph46%29.64 "Hg31 mi
1:00 pm44 °FSprinkles. Overcast.10 mph50%29.61 "Hg19 mi
12:00 pm45 °FOvercast.10 mph45%29.59 "Hg31 mi
Weather by CustomWeather, © 2017

See weather overviewHow to use our weather pages